Regional Weather Roundup
Issued by NWS

Home | Current Version | Previous Version | Graphics & Text | Print | Product List | Glossary On
Versions: 1 2 3 4 5 6 7 8 9 10 11 12 13 14 15 16 17 18 19 20 21 22 23 24 25 26 27 28 29 30 31 32 33 34 35 36 37 38 39 40 41 42 43 44 45 46 47 48 49 50
000
ASUS43 KBIS 232002
RWRND

NORTH DAKOTA REGIONAL WEATHER ROUNDUP
NATIONAL WEATHER SERVICE BISMARCK ND
200 PM CST THU NOV 23 2017

NOTE: "FAIR" INDICATES FEW OR NO CLOUDS BELOW 12,000 FEET WITH NO
SIGNIFICANT WEATHER AND/OR OBSTRUCTIONS TO VISIBILITY.


NDZ001>003-009>011-017-232100-
NORTHWEST NORTH DAKOTA

CITY           SKY/WX    TMP DP  RH WIND       PRES   REMARKS
WILLISTON      SUNNY     59  40  49 S6        29.53F
MINOT          CLOUDY    57  41  55 SW15      29.50F
MINOT AFB      CLOUDY    57  41  55 SW16G23   29.48F
$$

NDZ018>021-031>035-040>046-232100-
SOUTHWEST NORTH DAKOTA

CITY           SKY/WX    TMP DP  RH WIND       PRES   REMARKS
BISMARCK       SUNNY     71  42  35 W12       29.62F
DICKINSON      CLOUDY    69  37  30 W22G30    29.62F
GARRISON         N/A     58  43  57 SW9       29.56F
HETTINGER ARPT MOSUNNY   71  36  27 W17       29.70F
$$

NDZ004>008-012>016-024-026-027-054-232100-
NORTHEAST NORTH DAKOTA

CITY           SKY/WX    TMP DP  RH WIND       PRES   REMARKS
GRAND FORKS    CLOUDY    32  30  92 S15       29.63F
GRND FRKS AFB  PTSUNNY   34  31  88 S13       29.62F
DEVILS LAKE    SUNNY     41  32  70 S6        29.57F
$$

NDZ022-023-025-028>030-036>039-047>053-232100-
SOUTHEAST NORTH DAKOTA

CITY           SKY/WX    TMP DP  RH WIND       PRES   REMARKS
FARGO          SUNNY     42  30  62 S13       29.67F
JAMESTOWN      CLOUDY    56  40  55 SW9       29.61F
$$




USA.gov is the U.S. government's official web portal to all federal, state and local government web resources and services.